User: anonymous   Login
Location: Vancouver
(49.2500°N, 123.1330°W)
Time: 12:37:19
(UTC-08:00)
Language:

Cosmos 1340 Rocket - Orbit

View from above orbital plane
View from above orbital plane
View from above satellite
View from above satellite

Ground track
Ground track

The orbit data is extracted from the following two-line orbital elements,

1 13068U 82013B   17347.50392260  .00001038  00000-0  67297-4 0  9998
2 13068  81.2035  17.7434 0022670  84.4824 275.8984 15.07063855950504
Epoch (UTC): 13 December 2017 12:05:38
Eccentricity: 0.0022670
inclination: 81.2035°
perigee height: 529 km
apogee height: 561 km
right ascension of ascending node: 17.7434°
argument of perigee: 84.4824°
revolutions per day: 15.07063855
mean anomaly at epoch: 275.8984°
orbit number at epoch: 95050

The dashed part of the orbit path shows where the satellite is in the earth's shadow,  

DLR